| time (UTC) | temp C | wind direction | speed KPH | gust KPH | rain 1hr cm | rain 24hr cm | rain mn cm | humidity % | barometer mb |
| 20260504035541 | 15 | 252 | 1.6 | 4.8 | 0.00 | 0.05 | 0.05 | 49 | 1005.4 |
| 20260504035020 | 15 | 252 | 3.2 | 4.8 | 0.00 | 0.05 | 0.05 | 49 | 1005.4 |
| 20260504034520 | 15 | 242 | 3.2 | 6.4 | 0.00 | 0.05 | 0.05 | 49 | 1005.3 |
| 20260504034031 | 15 | 242 | 3.2 | 6.4 | 0.00 | 0.05 | 0.05 | 50 | 1005.5 |
| 20260504033540 | 15 | 225 | 4.8 | 9.7 | 0.00 | 0.05 | 0.05 | 50 | 1005.5 |
| 20260504033035 | 15 | 225 | 4.8 | 9.7 | 0.00 | 0.05 | 0.05 | 49 | 1005.5 |
| 20260504032536 | 15 | 254 | 4.8 | 9.7 | 0.00 | 0.05 | 0.05 | 47 | 1005.5 |
| 20260504032018 | 15 | 262 | 4.8 | 9.7 | 0.00 | 0.05 | 0.05 | 47 | 1005.4 |
| 20260504031545 | 15 | 277 | 3.2 | 8.0 | 0.00 | 0.05 | 0.05 | 47 | 1005.5 |
| 20260504031052 | 15 | 268 | 4.8 | 8.0 | 0.00 | 0.05 | 0.05 | 47 | 1005.5 |
| 20260504030519 | 16 | 281 | 4.8 | 11.3 | 0.00 | 0.05 | 0.05 | 47 | 1005.5 |
| 20260504030020 | 16 | 291 | 6.4 | 11.3 | 0.00 | 0.05 | 0.05 | 47 | 1005.3 |
| 20260504025557 | 16 | 262 | 6.4 | 9.7 | 0.00 | 0.05 | 0.05 | 48 | 1005.3 |
| 20260504025026 | 16 | 256 | 4.8 | 9.7 | 0.00 | 0.05 | 0.05 | 48 | 1005.3 |
| 20260504024525 | 16 | 252 | 4.8 | 11.3 | 0.00 | 0.05 | 0.05 | 48 | 1005.3 |
| 20260504024046 | 16 | 261 | 6.4 | 11.3 | 0.00 | 0.05 | 0.05 | 48 | 1005.3 |
| 20260504023520 | 16 | 255 | 6.4 | 12.9 | 0.00 | 0.05 | 0.05 | 48 | 1005.4 |
| 20260504023055 | 16 | 266 | 6.4 | 12.9 | 0.00 | 0.05 | 0.05 | 48 | 1005.3 |
| 20260504022535 | 16 | 273 | 6.4 | 12.9 | 0.00 | 0.05 | 0.05 | 48 | 1005.3 |
| 20260504022051 | 16 | 258 | 4.8 | 12.9 | 0.00 | 0.05 | 0.05 | 48 | 1005.2 |
| 20260504021530 | 16 | 252 | 6.4 | 11.3 | 0.00 | 0.05 | 0.05 | 49 | 1005.1 |
| 20260504021021 | 16 | 249 | 6.4 | 11.3 | 0.00 | 0.05 | 0.05 | 49 | 1005.1 |
| 20260504020532 | 17 | 226 | 4.8 | 6.4 | 0.00 | 0.05 | 0.05 | 48 | 1005.0 |
| 20260504020022 | 17 | 227 | 4.8 | 9.7 | 0.00 | 0.05 | 0.05 | 48 | 1004.8 |
| 20260504015537 | 17 | 226 | 6.4 | 9.7 | 0.00 | 0.05 | 0.05 | 47 | 1004.8 |
| 20260504015018 | 17 | 234 | 8.0 | 9.7 | 0.00 | 0.05 | 0.05 | 46 | 1004.8 |
| 20260504014555 | 17 | 232 | 6.4 | 8.0 | 0.00 | 0.05 | 0.05 | 46 | 1004.8 |
| 20260504014037 | 17 | 234 | 4.8 | 6.4 | 0.00 | 0.05 | 0.05 | 45 | 1004.7 |
| 20260504013529 | 18 | 252 | 3.2 | 4.8 | 0.00 | 0.05 | 0.05 | 45 | 1004.5 |
| 20260504013038 | 18 | 252 | 1.6 | 4.8 | 0.00 | 0.05 | 0.05 | 44 | 1004.6 |
| 20260504012531 | 18 | 252 | 3.2 | 8.0 | 0.00 | 0.05 | 0.05 | 44 | 1004.5 |
| 20260504012038 | 18 | 252 | 4.8 | 8.0 | 0.00 | 0.05 | 0.05 | 43 | 1004.5 |
| 20260504011535 | 18 | 243 | 6.4 | 8.0 | 0.00 | 0.05 | 0.05 | 43 | 1004.6 |
| 20260504011032 | 18 | 247 | 4.8 | 6.4 | 0.00 | 0.05 | 0.05 | 42 | 1004.6 |
| 20260504010524 | 18 | 247 | 4.8 | 6.4 | 0.00 | 0.05 | 0.05 | 42 | 1004.6 |
| 20260504010034 | 19 | 247 | 3.2 | 6.4 | 0.00 | 0.05 | 0.05 | 41 | 1004.5 |
| 20260504005529 | 19 | 247 | 4.8 | 6.4 | 0.00 | 0.05 | 0.05 | 41 | 1004.5 |
| 20260504005018 | 19 | 247 | 3.2 | 8.0 | 0.00 | 0.05 | 0.05 | 41 | 1004.6 |
| 20260504004526 | 19 | 261 | 4.8 | 8.0 | 0.00 | 0.05 | 0.05 | 41 | 1004.6 |
| 20260504004029 | 20 | 245 | 4.8 | 11.3 | 0.00 | 0.05 | 0.05 | 41 | 1004.5 |
| 20260504003530 | 20 | 256 | 4.8 | 12.9 | 0.00 | 0.05 | 0.05 | 40 | 1004.6 |
| 20260504003048 | 20 | 242 | 8.0 | 14.5 | 0.00 | 0.05 | 0.05 | 40 | 1004.5 |
| 20260504002522 | 20 | 259 | 4.8 | 19.3 | 0.00 | 0.05 | 0.05 | 40 | 1004.5 |
| 20260504002025 | 20 | 226 | 8.0 | 19.3 | 0.00 | 0.05 | 0.05 | 40 | 1004.5 |
| 20260504001531 | 20 | 263 | 9.7 | 22.5 | 0.00 | 0.05 | 0.05 | 40 | 1004.5 |
| 20260504001021 | 20 | 244 | 12.9 | 22.5 | 0.00 | 0.05 | 0.05 | 39 | 1004.4 |
| 20260504000528 | 20 | 234 | 11.3 | 25.7 | 0.00 | 0.05 | 0.05 | 39 | 1004.4 |
| 20260504000019 | 21 | 249 | 14.5 | 25.7 | 0.00 | 0.05 | 0.05 | 38 | 1004.4 |
| 20260503235518 | 21 | 235 | 11.3 | 24.1 | 0.00 | 0.05 | 0.05 | 38 | 1004.4 |
| 20260503235018 | 21 | 238 | 11.3 | 20.9 | 0.00 | 0.05 | 0.05 | 39 | 1004.3 |
| 20260503234533 | 21 | 234 | 11.3 | 19.3 | 0.00 | 0.05 | 0.05 | 38 | 1004.3 |
| 20260503234018 | 21 | 216 | 12.9 | 29.0 | 0.00 | 0.05 | 0.05 | 38 | 1004.3 |
| 20260503233530 | 21 | 246 | 12.9 | 29.0 | 0.00 | 0.05 | 0.05 | 38 | 1004.3 |
| 20260503233021 | 21 | 288 | 12.9 | 22.5 | 0.00 | 0.05 | 0.05 | 39 | 1004.3 |
| 20260503232530 | 21 | 241 | 12.9 | 22.5 | 0.00 | 0.05 | 0.05 | 39 | 1004.5 |
| 20260503232018 | 21 | 261 | 12.9 | 25.7 | 0.00 | 0.05 | 0.05 | 39 | 1004.5 |
| 20260503231531 | 21 | 242 | 14.5 | 25.7 | 0.00 | 0.05 | 0.05 | 39 | 1004.5 |
| 20260503231028 | 21 | 244 | 16.1 | 22.5 | 0.00 | 0.05 | 0.05 | 39 | 1004.5 |
| 20260503230525 | 21 | 233 | 11.3 | 22.5 | 0.00 | 0.05 | 0.05 | 40 | 1004.5 |
| 20260503230026 | 21 | 236 | 12.9 | 22.5 | 0.00 | 0.05 | 0.05 | 39 | 1004.6 |
| 20260503225521 | 21 | 290 | 12.9 | 24.1 | 0.00 | 0.05 | 0.05 | 40 | 1004.6 |
| 20260503225033 | 21 | 255 | 12.9 | 24.1 | 0.00 | 0.05 | 0.05 | 40 | 1004.6 |
| 20260503224524 | 21 | 266 | 12.9 | 24.1 | 0.00 | 0.05 | 0.05 | 40 | 1004.6 |
| 20260503224020 | 21 | 234 | 8.0 | 30.6 | 0.00 | 0.05 | 0.05 | 41 | 1004.6 |
| 20260503223534 | 21 | 238 | 22.5 | 30.6 | 0.00 | 0.05 | 0.05 | 39 | 1004.5 |
| 20260503223032 | 21 | 231 | 17.7 | 41.8 | 0.00 | 0.05 | 0.05 | 40 | 1004.6 |
| 20260503222538 | 21 | 224 | 25.7 | 41.8 | 0.00 | 0.05 | 0.05 | 40 | 1004.5 |
| 20260503222033 | 21 | 231 | 17.7 | 30.6 | 0.00 | 0.05 | 0.05 | 40 | 1004.6 |
| 20260503221521 | 21 | 197 | 20.9 | 32.2 | 0.00 | 0.05 | 0.05 | 40 | 1004.7 |
| 20260503221020 | 21 | 229 | 20.9 | 25.7 | 0.00 | 0.05 | 0.05 | 41 | 1004.6 |
| 20260503220550 | 21 | 236 | 14.5 | 33.8 | 0.00 | 0.05 | 0.05 | 42 | 1004.7 |
| 20260503220057 | 21 | 227 | 19.3 | 33.8 | 0.00 | 0.05 | 0.05 | 41 | 1004.8 |
| 20260503215036 | 21 | 240 | 17.7 | 30.6 | 0.00 | 0.05 | 0.05 | 41 | 1004.8 |
| 20260503214518 | 21 | 243 | 16.1 | 29.0 | 0.00 | 0.05 | 0.05 | 41 | 1005.1 |
| 20260503214028 | 21 | 239 | 11.3 | 27.4 | 0.00 | 0.05 | 0.05 | 41 | 1004.9 |
| 20260503213522 | 21 | 263 | 14.5 | 29.0 | 0.00 | 0.05 | 0.05 | 42 | 1004.9 |
| 20260503213036 | 21 | 244 | 14.5 | 30.6 | 0.00 | 0.05 | 0.05 | 42 | 1005.0 |
| 20260503212532 | 21 | 228 | 20.9 | 33.8 | 0.00 | 0.05 | 0.05 | 41 | 1005.0 |
| 20260503212029 | 20 | 265 | 22.5 | 38.6 | 0.00 | 0.05 | 0.05 | 42 | 1005.0 |
| 20260503211531 | 20 | 232 | 20.9 | 35.4 | 0.00 | 0.05 | 0.05 | 42 | 1005.0 |
| 20260503211025 | 20 | 233 | 20.9 | 30.6 | 0.00 | 0.05 | 0.05 | 42 | 1005.1 |
| 20260503210540 | 20 | 282 | 22.5 | 33.8 | 0.00 | 0.05 | 0.05 | 41 | 1005.1 |
| 20260503210042 | 20 | 250 | 17.7 | 35.4 | 0.00 | 0.05 | 0.05 | 42 | 1005.2 |
| 20260503205535 | 20 | 232 | 17.7 | 37.0 | 0.00 | 0.05 | 0.05 | 43 | 1005.3 |
| 20260503205029 | 20 | 221 | 24.1 | 37.0 | 0.00 | 0.05 | 0.05 | 42 | 1005.3 |
| 20260503204533 | 20 | 269 | 17.7 | 40.2 | 0.00 | 0.05 | 0.05 | 44 | 1005.5 |
| 20260503204029 | 20 | 227 | 27.4 | 40.2 | 0.00 | 0.05 | 0.05 | 42 | 1005.4 |
| 20260503203543 | 20 | 232 | 16.1 | 38.6 | 0.00 | 0.05 | 0.05 | 44 | 1005.6 |
| 20260503203031 | 20 | 228 | 25.7 | 38.6 | 0.00 | 0.05 | 0.05 | 42 | 1005.7 |
| 20260503202521 | 20 | 230 | 22.5 | 32.2 | 0.00 | 0.05 | 0.05 | 41 | 1005.8 |
| 20260503202018 | 20 | 233 | 17.7 | 35.4 | 0.00 | 0.05 | 0.05 | 43 | 1005.9 |
| 20260503201533 | 20 | 242 | 24.1 | 35.4 | 0.00 | 0.05 | 0.05 | 42 | 1005.8 |
| 20260503201030 | 20 | 241 | 19.3 | 35.4 | 0.00 | 0.05 | 0.05 | 44 | 1005.8 |
| 20260503200523 | 20 | 258 | 17.7 | 40.2 | 0.00 | 0.05 | 0.05 | 44 | 1005.8 |
| 20260503200036 | 20 | 207 | 22.5 | 45.1 | 0.00 | 0.05 | 0.05 | 44 | 1005.9 |
| 20260503195550 | 20 | 239 | 27.4 | 45.1 | 0.00 | 0.05 | 0.05 | 42 | 1006.0 |
| 20260503195036 | 20 | 190 | 19.3 | 41.8 | 0.00 | 0.05 | 0.05 | 44 | 1006.2 |
| 20260503194521 | 20 | 223 | 25.7 | 41.8 | 0.00 | 0.05 | 0.05 | 43 | 1006.2 |
| 20260503194024 | 19 | 210 | 20.9 | 41.8 | 0.00 | 0.05 | 0.05 | 43 | 1006.3 |
| 20260503193531 | 19 | 202 | 24.1 | 41.8 | 0.00 | 0.05 | 0.05 | 44 | 1006.4 |
| 20260503193020 | 19 | 223 | 24.1 | 43.5 | 0.00 | 0.05 | 0.05 | 44 | 1006.5 |
| 20260503192552 | 19 | 227 | 29.0 | 43.5 | 0.00 | 0.05 | 0.05 | 43 | 1006.6 |
| 20260503192027 | 20 | 216 | 22.5 | 43.5 | 0.00 | 0.05 | 0.05 | 43 | 1006.6 |
| 20260503191524 | 20 | 236 | 29.0 | 43.5 | 0.00 | 0.05 | 0.05 | 44 | 1006.5 |
| 20260503191029 | 19 | 215 | 25.7 | 38.6 | 0.00 | 0.05 | 0.05 | 43 | 1006.5 |
| 20260503190523 | 19 | 242 | 19.3 | 37.0 | 0.00 | 0.05 | 0.05 | 44 | 1006.7 |
| 20260503190027 | 18 | 269 | 19.3 | 46.7 | 0.00 | 0.05 | 0.05 | 45 | 1006.7 |
| 20260503185517 | 18 | 236 | 27.4 | 46.7 | 0.00 | 0.05 | 0.05 | 43 | 1006.9 |
| 20260503185024 | 19 | 210 | 27.4 | 41.8 | 0.00 | 0.05 | 0.05 | 43 | 1007.0 |
| 20260503184517 | 18 | 226 | 29.0 | 41.8 | 0.00 | 0.05 | 0.05 | 43 | 1006.7 |
| 20260503184020 | 18 | 222 | 25.7 | 41.8 | 0.00 | 0.05 | 0.05 | 44 | 1006.9 |
| 20260503183555 | 18 | 200 | 25.7 | 41.8 | 0.00 | 0.05 | 0.05 | 44 | 1006.9 |
| 20260503183030 | 18 | 225 | 33.8 | 43.5 | 0.00 | 0.05 | 0.05 | 44 | 1007.0 |
| 20260503182542 | 18 | 227 | 20.9 | 51.5 | 0.00 | 0.05 | 0.05 | 47 | 1007.0 |
| 20260503182034 | 18 | 224 | 25.7 | 46.7 | 0.00 | 0.05 | 0.05 | 46 | 1007.0 |
| 20260503181522 | 18 | 215 | 32.2 | 46.7 | 0.00 | 0.05 | 0.05 | 46 | 1007.0 |
| 20260503181032 | 18 | 229 | 30.6 | 49.9 | 0.00 | 0.05 | 0.05 | 46 | 1007.1 |
| 20260503180523 | 18 | 223 | 29.0 | 40.2 | 0.00 | 0.05 | 0.05 | 49 | 1007.1 |
| 20260503180024 | 17 | 205 | 32.2 | 48.3 | 0.00 | 0.05 | 0.05 | 47 | 1007.3 |
| 20260503175557 | 17 | 250 | 27.4 | 48.3 | 0.00 | 0.05 | 0.05 | 50 | 1007.4 |
| 20260503175033 | 17 | 225 | 29.0 | 46.7 | 0.00 | 0.05 | 0.05 | 50 | 1007.4 |
| 20260503174532 | 17 | 226 | 32.2 | 46.7 | 0.00 | 0.05 | 0.05 | 50 | 1007.6 |
| 20260503174027 | 17 | 208 | 30.6 | 43.5 | 0.00 | 0.05 | 0.05 | 49 | 1007.8 |
| 20260503173519 | 17 | 211 | 24.1 | 46.7 | 0.00 | 0.05 | 0.05 | 50 | 1007.7 |
| 20260503173027 | 17 | 212 | 27.4 | 46.7 | 0.00 | 0.05 | 0.05 | 50 | 1007.7 |
| 20260503172520 | 16 | 219 | 27.4 | 46.7 | 0.00 | 0.05 | 0.05 | 51 | 1007.7 |
| 20260503172033 | 16 | 219 | 32.2 | 46.7 | 0.00 | 0.05 | 0.05 | 49 | 1007.8 |
| 20260503171529 | 16 | 204 | 27.4 | 46.7 | 0.00 | 0.05 | 0.05 | 50 | 1008.0 |
| 20260503171023 | 16 | 219 | 35.4 | 45.1 | 0.00 | 0.05 | 0.05 | 50 | 1008.0 |
| 20260503170522 | 16 | 227 | 32.2 | 49.9 | 0.00 | 0.05 | 0.05 | 49 | 1008.0 |
| 20260503150527 | 12 | 187 | 30.6 | 45.1 | 0.03 | 0.05 | 0.05 | 70 | 1009.4 |
| 20260503130548 | 11 | 229 | 19.3 | 30.6 | 0.00 | 0.00 | 0.00 | 66 | 1011.3 |
| 20260503110559 | 8 | 213 | 14.5 | 22.5 | 0.00 | 0.00 | 0.00 | 57 | 1011.5 |
| 20260503081532 | 8 | 217 | 14.5 | 25.7 | 0.00 | 0.00 | 0.00 | 57 | 1012.5 |
| 20260503081023 | 8 | 206 | 14.5 | 25.7 | 0.00 | 0.00 | 0.00 | 57 | 1012.6 |
| 20260503080521 | 8 | 227 | 16.1 | 29.0 | 0.00 | 0.00 | 0.00 | 57 | 1012.6 |
| 20260503072521 | 7 | 221 | 14.5 | 22.5 | 0.00 | 0.00 | 0.00 | 56 | 1012.8 |
| 20260503072018 | 7 | 225 | 14.5 | 27.4 | 0.00 | 0.00 | 0.00 | 56 | 1012.9 |
| 20260503071520 | 7 | 201 | 16.1 | 22.5 | 0.00 | 0.00 | 0.00 | 56 | 1013.0 |
| 20260503071053 | 7 | 217 | 14.5 | 22.5 | 0.00 | 0.00 | 0.00 | 56 | 1013.0 |
| 20260503070525 | 7 | 205 | 16.1 | 20.9 | 0.00 | 0.00 | 0.00 | 56 | 1013.1 |
| 20260503055020 | 8 | 209 | 14.5 | 22.5 | 0.00 | 0.00 | 0.00 | 54 | 1013.8 |
| 20260503054527 | 8 | 210 | 11.3 | 22.5 | 0.00 | 0.00 | 0.00 | 54 | 1013.8 |
| 20260503054042 | 8 | 202 | 16.1 | 24.1 | 0.00 | 0.00 | 0.00 | 53 | 1013.7 |
| 20260503053528 | 8 | 206 | 16.1 | 19.3 | 0.00 | 0.00 | 0.00 | 53 | 1013.8 |
| 20260503053030 | 8 | 215 | 12.9 | 19.3 | 0.00 | 0.00 | 0.00 | 53 | 1013.7 |
| 20260503052525 | 8 | 209 | 11.3 | 16.1 | 0.00 | 0.00 | 0.00 | 53 | 1013.8 |
| 20260503052033 | 8 | 202 | 11.3 | 19.3 | 0.00 | 0.00 | 0.00 | 53 | 1013.9 |
| 20260503051531 | 8 | 211 | 11.3 | 17.7 | 0.00 | 0.00 | 0.00 | 53 | 1014.0 |
| 20260503051024 | 8 | 229 | 11.3 | 17.7 | 0.00 | 0.00 | 0.00 | 53 | 1014.1 |
| 20260503050522 | 8 | 218 | 12.9 | 17.7 | 0.00 | 0.00 | 0.00 | 53 | 1014.1 |
| 20260503050036 | 8 | 217 | 12.9 | 17.7 | 0.00 | 0.00 | 0.00 | 53 | 1014.0 |
| 20260503045521 | 8 | 209 | 11.3 | 17.7 | 0.00 | 0.00 | 0.00 | 52 | 1014.1 |
| 20260503045038 | 8 | 210 | 11.3 | 16.1 | 0.00 | 0.00 | 0.00 | 52 | 1014.1 |
| 20260503044526 | 8 | 202 | 11.3 | 16.1 | 0.00 | 0.00 | 0.00 | 52 | 1014.1 |
| 20260503044022 | 8 | 208 | 12.9 | 16.1 | 0.00 | 0.00 | 0.00 | 52 | 1014.0 |
| 20260503043524 | 8 | 210 | 11.3 | 16.1 | 0.00 | 0.00 | 0.00 | 51 | 1014.0 |
| 20260503043022 | 8 | 220 | 9.7 | 16.1 | 0.00 | 0.00 | 0.00 | 51 | 1014.0 |
| 20260503042533 | 8 | 220 | 11.3 | 14.5 | 0.00 | 0.00 | 0.00 | 51 | 1014.0 |
| 20260503042036 | 8 | 217 | 9.7 | 14.5 | 0.00 | 0.00 | 0.00 | 51 | 1014.1 |
| 20260503041529 | 8 | 209 | 11.3 | 16.1 | 0.00 | 0.00 | 0.00 | 50 | 1014.1 |
| 20260503041025 | 8 | 215 | 9.7 | 16.1 | 0.00 | 0.00 | 0.00 | 51 | 1014.1 |
| 20260503040521 | 8 | 222 | 9.7 | 14.5 | 0.00 | 0.00 | 0.00 | 50 | 1014.3 |
| 20260503040031 | 8 | 214 | 11.3 | 14.5 | 0.00 | 0.00 | 0.00 | 50 | 1014.4 |